METEOR 2-5 DEB

基本信息
目录编号:
38271
目录名称:
METEOR 2-5 DEB
国际标识:
1979-095BR
轨道中心:
EARTH
物体状态:
在轨
发射日期:
1979-10-31 UTC
轨道信息
数据来源: 国际轨道数据
星历时间: 2026-09-12T11:24:37+0800
半长轴: 7145.383km
偏心率: 0.0022533
轨道倾角: 81.203°
近地点辐角: 51.918°
升交点赤经: 45.888°
平近点角: 308.403°
近地点: 751.145km
远地点: 783.347km
周期: 100.184分钟
每日圈数: 14.373565
详细信息
发射场:
PKMTR
轨道高度:
LEO
数据来源:
AOE Integration Group
参考系:
TEME
时间系统:
UTC
历元类型:
SGP4
2D轨道图
3D轨道图
轨道高度分析图
轨道倾角分析图
轨道综合分析图
查看轨道综合分析图